Year,Month,Day,Hour,Minute,Value (Times are PST for temperature in C)
2010,08,25,00,00,16.80
2010,08,25,00,01,16.80
2010,08,25,00,02,16.70
2010,08,25,00,03,16.70
2010,08,25,00,04,16.70
2010,08,25,00,05,16.60
2010,08,25,00,06,16.60
2010,08,25,00,07,16.60
2010,08,25,00,08,16.50
2010,08,25,00,09,16.50
2010,08,25,00,10,16.40
2010,08,25,00,11,16.40
2010,08,25,00,12,16.30
2010,08,25,00,13,16.30
2010,08,25,00,14,16.30
2010,08,25,00,15,16.30
2010,08,25,00,16,16.20
2010,08,25,00,17,16.20
2010,08,25,00,18,16.20
2010,08,25,00,19,16.10
2010,08,25,00,20,16.10
2010,08,25,00,21,16.10
2010,08,25,00,22,16.10
2010,08,25,00,23,16.00
2010,08,25,00,24,16.00
2010,08,25,00,25,16.00
2010,08,25,00,26,15.90
2010,08,25,00,27,15.90
2010,08,25,00,28,15.90
2010,08,25,00,29,15.80
2010,08,25,00,30,15.80
2010,08,25,00,31,15.80
2010,08,25,00,32,15.80
2010,08,25,00,33,15.70
2010,08,25,00,34,15.70
2010,08,25,00,35,15.70
2010,08,25,00,36,15.60
2010,08,25,00,37,15.60
2010,08,25,00,38,15.60
2010,08,25,00,39,15.60
2010,08,25,00,40,15.50
2010,08,25,00,41,15.50
2010,08,25,00,42,15.50
2010,08,25,00,43,15.40
2010,08,25,00,44,15.40
2010,08,25,00,45,15.40
2010,08,25,00,46,15.40
2010,08,25,00,47,15.30
2010,08,25,00,48,15.30
2010,08,25,00,49,15.30
2010,08,25,00,50,15.30
2010,08,25,00,51,15.20
2010,08,25,00,52,15.20
2010,08,25,00,53,15.20
2010,08,25,00,54,15.20
2010,08,25,00,55,15.10
2010,08,25,00,56,15.10
2010,08,25,00,57,15.00
2010,08,25,00,58,15.00
2010,08,25,00,59,15.00
2010,08,25,01,00,15.00
2010,08,25,01,01,15.00
2010,08,25,01,02,15.00
2010,08,25,01,03,15.00
2010,08,25,01,04,15.00
2010,08,25,01,05,15.00
2010,08,25,01,06,15.00
2010,08,25,01,07,15.00
2010,08,25,01,08,15.00
2010,08,25,01,09,15.00
2010,08,25,01,10,15.00
2010,08,25,01,11,15.00
2010,08,25,01,12,14.90
2010,08,25,01,13,14.90
2010,08,25,01,14,14.90
2010,08,25,01,15,14.80
2010,08,25,01,16,14.80
2010,08,25,01,17,14.80
2010,08,25,01,18,14.80
2010,08,25,01,19,14.70
2010,08,25,01,20,14.70
2010,08,25,01,21,14.70
2010,08,25,01,22,14.70
2010,08,25,01,23,14.60
2010,08,25,01,24,14.60
2010,08,25,01,25,14.60
2010,08,25,01,26,14.60
2010,08,25,01,27,14.60
2010,08,25,01,28,14.50
2010,08,25,01,29,14.50
2010,08,25,01,30,14.50
2010,08,25,01,31,14.40
2010,08,25,01,32,14.40
2010,08,25,01,33,14.40
2010,08,25,01,34,14.40
2010,08,25,01,35,14.30
2010,08,25,01,36,14.30
2010,08,25,01,37,14.30
2010,08,25,01,38,14.30
2010,08,25,01,39,14.30
2010,08,25,01,40,14.20
2010,08,25,01,41,14.20
2010,08,25,01,42,14.20
2010,08,25,01,43,14.20
2010,08,25,01,44,14.20
2010,08,25,01,45,14.10
2010,08,25,01,46,14.10
2010,08,25,01,47,14.10
2010,08,25,01,48,14.10
2010,08,25,01,49,14.10
2010,08,25,01,50,14.00
2010,08,25,01,51,14.00
2010,08,25,01,52,14.00
2010,08,25,01,53,13.90
2010,08,25,01,54,13.90
2010,08,25,01,55,13.90
2010,08,25,01,56,13.90
2010,08,25,01,57,13.90
2010,08,25,01,58,13.90
2010,08,25,01,59,13.80
2010,08,25,02,00,13.80
2010,08,25,02,01,13.80
2010,08,25,02,02,13.80
2010,08,25,02,03,13.80
2010,08,25,02,04,13.80
2010,08,25,02,05,13.80
2010,08,25,02,06,13.80
2010,08,25,02,07,13.70
2010,08,25,02,08,13.70
2010,08,25,02,09,13.70
2010,08,25,02,10,13.70
2010,08,25,02,11,13.70
2010,08,25,02,12,13.60
2010,08,25,02,13,13.60
2010,08,25,02,14,13.60
2010,08,25,02,15,13.60
2010,08,25,02,16,13.60
2010,08,25,02,17,13.50
2010,08,25,02,18,13.50
2010,08,25,02,19,13.50
2010,08,25,02,20,13.50
2010,08,25,02,21,13.40
2010,08,25,02,22,13.40
2010,08,25,02,23,13.40
2010,08,25,02,24,13.40
2010,08,25,02,25,13.40
2010,08,25,02,26,13.30
2010,08,25,02,27,13.30
2010,08,25,02,28,13.30
2010,08,25,02,29,13.30
2010,08,25,02,30,13.30
2010,08,25,02,31,13.20
2010,08,25,02,32,13.20
2010,08,25,02,33,13.20
2010,08,25,02,34,13.20
2010,08,25,02,35,13.20
2010,08,25,02,36,13.20
2010,08,25,02,37,13.10
2010,08,25,02,38,13.10
2010,08,25,02,39,13.10
2010,08,25,02,40,13.10
2010,08,25,02,41,13.10
2010,08,25,02,42,13.00
2010,08,25,02,43,13.00
2010,08,25,02,44,13.00
2010,08,25,02,45,13.00
2010,08,25,02,46,12.90
2010,08,25,02,47,12.90
2010,08,25,02,48,12.90
2010,08,25,02,49,12.90
2010,08,25,02,50,12.90
2010,08,25,02,51,12.80
2010,08,25,02,52,12.80
2010,08,25,02,53,12.80
2010,08,25,02,54,12.80
2010,08,25,02,55,12.80
2010,08,25,02,56,12.80
2010,08,25,02,57,12.80
2010,08,25,02,58,12.70
2010,08,25,02,59,12.70
2010,08,25,03,00,12.70
2010,08,25,03,01,12.70
2010,08,25,03,02,12.70
2010,08,25,03,03,12.70
2010,08,25,03,04,12.60
2010,08,25,03,05,12.60
2010,08,25,03,06,12.60
2010,08,25,03,07,12.60
2010,08,25,03,08,12.60
2010,08,25,03,09,12.60
2010,08,25,03,10,12.60
2010,08,25,03,11,12.50
2010,08,25,03,12,12.50
2010,08,25,03,13,12.50
2010,08,25,03,14,12.50
2010,08,25,03,15,12.50
2010,08,25,03,16,12.40
2010,08,25,03,17,12.40
2010,08,25,03,18,12.40
2010,08,25,03,19,12.40
2010,08,25,03,20,12.40
2010,08,25,03,21,12.40
2010,08,25,03,22,12.40
2010,08,25,03,23,12.40
2010,08,25,03,24,12.30
2010,08,25,03,25,12.30
2010,08,25,03,26,12.30
2010,08,25,03,27,12.30
2010,08,25,03,28,12.30
2010,08,25,03,29,12.30
2010,08,25,03,30,12.30
2010,08,25,03,31,12.30
2010,08,25,03,32,12.30
2010,08,25,03,33,12.30
2010,08,25,03,34,12.20
2010,08,25,03,35,12.20
2010,08,25,03,36,12.20
2010,08,25,03,37,12.20
2010,08,25,03,38,12.20
2010,08,25,03,39,12.20
2010,08,25,03,40,12.10
2010,08,25,03,41,12.10
2010,08,25,03,42,12.10
2010,08,25,03,43,12.10
2010,08,25,03,44,12.10
2010,08,25,03,45,12.10
2010,08,25,03,46,12.00
2010,08,25,03,47,12.00
2010,08,25,03,48,12.00
2010,08,25,03,49,12.00
2010,08,25,03,50,12.00
2010,08,25,03,51,11.90
2010,08,25,03,52,11.90
2010,08,25,03,53,11.90
2010,08,25,03,54,11.90
2010,08,25,03,55,11.90
2010,08,25,03,56,11.90
2010,08,25,03,57,11.90
2010,08,25,03,58,11.90
2010,08,25,03,59,11.90
2010,08,25,04,00,11.90
2010,08,25,04,01,11.90
2010,08,25,04,02,11.90
2010,08,25,04,03,11.80
2010,08,25,04,04,11.80
2010,08,25,04,05,11.80
2010,08,25,04,06,11.80
2010,08,25,04,07,11.80
2010,08,25,04,08,11.80
2010,08,25,04,09,11.80
2010,08,25,04,10,11.80
2010,08,25,04,11,11.70
2010,08,25,04,12,11.70
2010,08,25,04,13,11.70
2010,08,25,04,14,11.70
2010,08,25,04,15,11.70
2010,08,25,04,16,11.70
2010,08,25,04,17,11.70
2010,08,25,04,18,11.70
2010,08,25,04,19,11.70
2010,08,25,04,20,11.60
2010,08,25,04,21,11.60
2010,08,25,04,22,11.60
2010,08,25,04,23,11.60
2010,08,25,04,24,11.60
2010,08,25,04,25,11.60
2010,08,25,04,26,11.60
2010,08,25,04,27,11.60
2010,08,25,04,28,11.60
2010,08,25,04,29,11.50
2010,08,25,04,30,11.50
2010,08,25,04,31,11.50
2010,08,25,04,32,11.50
2010,08,25,04,33,11.50
2010,08,25,04,34,11.50
2010,08,25,04,35,11.50
2010,08,25,04,36,11.50
2010,08,25,04,37,11.50
2010,08,25,04,38,11.40
2010,08,25,04,39,11.40
2010,08,25,04,40,11.40
2010,08,25,04,41,11.40
2010,08,25,04,42,11.40
2010,08,25,04,43,11.40
2010,08,25,04,44,11.40
2010,08,25,04,45,11.40
2010,08,25,04,46,11.40
2010,08,25,04,47,11.30
2010,08,25,04,48,11.30
2010,08,25,04,49,11.30
2010,08,25,04,50,11.30
2010,08,25,04,51,11.30
2010,08,25,04,52,11.30
2010,08,25,04,53,11.30
2010,08,25,04,54,11.30
2010,08,25,04,55,11.30
2010,08,25,04,56,11.30
2010,08,25,04,57,11.20
2010,08,25,04,58,11.20
2010,08,25,04,59,11.20
2010,08,25,05,00,11.20
2010,08,25,05,01,11.20
2010,08,25,05,02,11.20
2010,08,25,05,03,11.20
2010,08,25,05,04,11.20
2010,08,25,05,05,11.20
2010,08,25,05,06,11.10
2010,08,25,05,07,11.10
2010,08,25,05,08,11.10
2010,08,25,05,09,11.10
2010,08,25,05,10,11.10
2010,08,25,05,11,11.10
2010,08,25,05,12,11.10
2010,08,25,05,13,11.10
2010,08,25,05,14,11.00
2010,08,25,05,15,11.00
2010,08,25,05,16,11.00
2010,08,25,05,17,11.00
2010,08,25,05,18,11.00
2010,08,25,05,19,10.90
2010,08,25,05,20,10.90
2010,08,25,05,21,10.90
2010,08,25,05,22,10.90
2010,08,25,05,23,10.90
2010,08,25,05,24,10.90
2010,08,25,05,25,10.90
2010,08,25,05,26,10.90
2010,08,25,05,27,10.80
2010,08,25,05,28,10.80
2010,08,25,05,29,10.80
2010,08,25,05,30,10.80
2010,08,25,05,31,10.80
2010,08,25,05,32,10.80
2010,08,25,05,33,10.80
2010,08,25,05,34,10.80
2010,08,25,05,35,10.80
2010,08,25,05,36,10.80
2010,08,25,05,37,10.80
2010,08,25,05,38,10.80
2010,08,25,05,39,10.80
2010,08,25,05,40,10.80
2010,08,25,05,41,10.80
2010,08,25,05,42,10.80
2010,08,25,05,43,10.80
2010,08,25,05,44,10.80
2010,08,25,05,45,10.80
2010,08,25,05,46,10.70
2010,08,25,05,47,10.70
2010,08,25,05,48,10.70
2010,08,25,05,49,10.70
2010,08,25,05,50,10.70
2010,08,25,05,51,10.70
2010,08,25,05,52,10.70
2010,08,25,05,53,10.70
2010,08,25,05,54,10.70
2010,08,25,05,55,10.70
2010,08,25,05,56,10.60
2010,08,25,05,57,10.60
2010,08,25,05,58,10.60
2010,08,25,05,59,10.60
2010,08,25,06,00,10.60
2010,08,25,06,01,10.60
2010,08,25,06,02,10.60
2010,08,25,06,03,10.60
2010,08,25,06,04,10.60
2010,08,25,06,05,10.60
2010,08,25,06,06,10.60
2010,08,25,06,07,10.50
2010,08,25,06,08,10.50
2010,08,25,06,09,10.50
2010,08,25,06,10,10.50
2010,08,25,06,11,10.50
2010,08,25,06,12,10.50
2010,08,25,06,13,10.50
2010,08,25,06,14,10.50
2010,08,25,06,15,10.50
2010,08,25,06,16,10.50
2010,08,25,06,17,10.50
2010,08,25,06,18,10.40
2010,08,25,06,19,10.40
2010,08,25,06,20,10.40
2010,08,25,06,21,10.40
2010,08,25,06,22,10.40
2010,08,25,06,23,10.40
2010,08,25,06,24,10.40
2010,08,25,06,25,10.40
2010,08,25,06,26,10.40
2010,08,25,06,27,10.40
2010,08,25,06,28,10.40
2010,08,25,06,29,10.40
2010,08,25,06,30,10.40
2010,08,25,06,31,10.40
2010,08,25,06,32,10.40
2010,08,25,06,33,10.40
2010,08,25,06,34,10.40
2010,08,25,06,35,10.40
2010,08,25,06,36,10.30
2010,08,25,06,37,10.30
2010,08,25,06,38,10.30
2010,08,25,06,39,10.30
2010,08,25,06,40,10.30
2010,08,25,06,41,10.30
2010,08,25,06,42,10.30
2010,08,25,06,43,10.30
2010,08,25,06,44,10.30
2010,08,25,06,45,10.30
2010,08,25,06,46,10.30
2010,08,25,06,47,10.30
2010,08,25,06,48,10.30
2010,08,25,06,49,10.30
2010,08,25,06,50,10.30
2010,08,25,06,51,10.30
2010,08,25,06,52,10.30
2010,08,25,06,53,10.30
2010,08,25,06,54,10.30
2010,08,25,06,55,10.30
2010,08,25,06,56,10.30
2010,08,25,06,57,10.30
2010,08,25,06,58,10.30
2010,08,25,06,59,10.30
2010,08,25,07,00,10.30
2010,08,25,07,01,10.30
2010,08,25,07,02,10.30
2010,08,25,07,03,10.40
2010,08,25,07,04,10.40
2010,08,25,07,05,10.40
2010,08,25,07,06,10.40
2010,08,25,07,07,10.40
2010,08,25,07,08,10.40
2010,08,25,07,09,10.40
2010,08,25,07,10,10.40
2010,08,25,07,11,10.40
2010,08,25,07,12,10.40
2010,08,25,07,13,10.40
2010,08,25,07,14,10.40
2010,08,25,07,15,10.40
2010,08,25,07,16,10.40
2010,08,25,07,17,10.40
2010,08,25,07,18,10.40
2010,08,25,07,19,10.40
2010,08,25,07,20,10.40
2010,08,25,07,21,10.40
2010,08,25,07,22,10.40
2010,08,25,07,23,10.40
2010,08,25,07,24,10.40
2010,08,25,07,25,10.40
2010,08,25,07,26,10.40
2010,08,25,07,27,10.40
2010,08,25,07,28,10.40
2010,08,25,07,29,10.40
2010,08,25,07,30,10.50
2010,08,25,07,31,10.50
2010,08,25,07,32,10.50
2010,08,25,07,33,10.50
2010,08,25,07,34,10.60
2010,08,25,07,35,10.60
2010,08,25,07,36,10.60
2010,08,25,07,37,10.60
2010,08,25,07,38,10.60
2010,08,25,07,39,10.60
2010,08,25,07,40,10.70
2010,08,25,07,41,10.70
2010,08,25,07,42,10.70
2010,08,25,07,43,10.70
2010,08,25,07,44,10.70
2010,08,25,07,45,10.70
2010,08,25,07,46,10.70
2010,08,25,07,47,10.80
2010,08,25,07,48,10.80
2010,08,25,07,49,10.80
2010,08,25,07,50,10.80
2010,08,25,07,51,10.90
2010,08,25,07,52,10.90
2010,08,25,07,53,11.00
2010,08,25,07,54,11.00
2010,08,25,07,55,11.10
2010,08,25,07,56,11.20
2010,08,25,07,57,11.20
2010,08,25,07,58,11.30
2010,08,25,07,59,11.40
2010,08,25,08,00,11.40
2010,08,25,08,01,11.50
2010,08,25,08,02,11.60
2010,08,25,08,03,11.70
2010,08,25,08,04,11.70
2010,08,25,08,05,11.80
2010,08,25,08,06,11.80
2010,08,25,08,07,11.90
2010,08,25,08,08,11.90
2010,08,25,08,09,12.00
2010,08,25,08,10,12.10
2010,08,25,08,11,12.10
2010,08,25,08,12,12.20
2010,08,25,08,13,12.30
2010,08,25,08,14,12.30
2010,08,25,08,15,12.40
2010,08,25,08,16,12.50
2010,08,25,08,17,12.50
2010,08,25,08,18,12.60
2010,08,25,08,19,12.70
2010,08,25,08,20,12.70
2010,08,25,08,21,12.80
2010,08,25,08,22,12.90
2010,08,25,08,23,13.00
2010,08,25,08,24,13.10
2010,08,25,08,25,13.10
2010,08,25,08,26,13.20
2010,08,25,08,27,13.30
2010,08,25,08,28,13.30
2010,08,25,08,29,13.40
2010,08,25,08,30,13.50
2010,08,25,08,31,13.60
2010,08,25,08,32,13.70
2010,08,25,08,33,13.80
2010,08,25,08,34,13.90
2010,08,25,08,35,14.00
2010,08,25,08,36,14.00
2010,08,25,08,37,14.10
2010,08,25,08,38,14.20
2010,08,25,08,39,14.30
2010,08,25,08,40,14.40
2010,08,25,08,41,14.50
2010,08,25,08,42,14.60
2010,08,25,08,43,14.70
2010,08,25,08,44,14.80
2010,08,25,08,45,14.90
2010,08,25,08,46,15.00
2010,08,25,08,47,15.00
2010,08,25,08,48,15.00
2010,08,25,08,49,15.00
2010,08,25,08,50,15.20
2010,08,25,08,51,15.30
2010,08,25,08,52,15.30
2010,08,25,08,53,15.40
2010,08,25,08,54,15.50
2010,08,25,08,55,15.60
2010,08,25,08,56,15.60
2010,08,25,08,57,15.70
2010,08,25,08,58,15.80
2010,08,25,08,59,15.90
2010,08,25,09,00,15.90
2010,08,25,09,01,16.00
2010,08,25,09,02,16.10
2010,08,25,09,03,16.20
2010,08,25,09,04,16.30
2010,08,25,09,05,16.40
2010,08,25,09,06,16.50
2010,08,25,09,07,16.60
2010,08,25,09,08,16.70
2010,08,25,09,09,16.80
2010,08,25,09,10,16.90
2010,08,25,09,11,17.00
2010,08,25,09,12,17.10
2010,08,25,09,13,17.30
2010,08,25,09,14,17.40
2010,08,25,09,15,17.50
2010,08,25,09,16,17.70
2010,08,25,09,17,17.80
2010,08,25,09,18,18.00
2010,08,25,09,19,18.20
2010,08,25,09,20,18.30
2010,08,25,09,21,18.40
2010,08,25,09,22,18.50
2010,08,25,09,23,18.60
2010,08,25,09,24,18.70
2010,08,25,09,25,18.80
2010,08,25,09,26,18.90
2010,08,25,09,27,19.00
2010,08,25,09,28,19.00
2010,08,25,09,29,19.10
2010,08,25,09,30,19.20
2010,08,25,09,31,19.20
2010,08,25,09,32,19.30
2010,08,25,09,33,19.30
2010,08,25,09,34,19.40
2010,08,25,09,35,19.40
2010,08,25,09,36,19.50
2010,08,25,09,37,19.60
2010,08,25,09,38,19.60
2010,08,25,09,39,19.70
2010,08,25,09,40,19.80
2010,08,25,09,41,19.80
2010,08,25,09,42,19.90
2010,08,25,09,43,19.90
2010,08,25,09,44,19.90
2010,08,25,09,45,20.00
2010,08,25,09,46,20.00
2010,08,25,09,47,20.10
2010,08,25,09,48,20.10
2010,08,25,09,49,20.20
2010,08,25,09,50,20.20
2010,08,25,09,51,20.30
2010,08,25,09,52,20.30
2010,08,25,09,53,20.40
2010,08,25,09,54,20.40
2010,08,25,09,55,20.50
2010,08,25,09,56,20.60
2010,08,25,09,57,20.70
2010,08,25,09,58,20.70
2010,08,25,09,59,20.80
2010,08,25,10,00,20.80
2010,08,25,10,01,20.90
2010,08,25,10,02,21.00
2010,08,25,10,03,21.00
2010,08,25,10,04,21.10
2010,08,25,10,05,21.20
2010,08,25,10,06,21.30
2010,08,25,10,07,21.30
2010,08,25,10,08,21.30
2010,08,25,10,09,21.40
2010,08,25,10,10,21.40
2010,08,25,10,11,21.40
2010,08,25,10,12,21.40
2010,08,25,10,13,21.40
2010,08,25,10,14,21.50
2010,08,25,10,15,21.60
2010,08,25,10,16,21.60
2010,08,25,10,17,21.70
2010,08,25,10,18,21.70
2010,08,25,10,19,21.80
2010,08,25,10,20,21.80
2010,08,25,10,21,21.90
2010,08,25,10,22,22.00
2010,08,25,10,23,22.10
2010,08,25,10,24,22.10
2010,08,25,10,25,22.10
2010,08,25,10,26,22.20
2010,08,25,10,27,22.30
2010,08,25,10,28,22.40
2010,08,25,10,29,22.50
2010,08,25,10,30,22.50
2010,08,25,10,31,22.50
2010,08,25,10,32,22.50
2010,08,25,10,33,22.50
2010,08,25,10,34,22.50
2010,08,25,10,35,22.50
2010,08,25,10,36,22.50
2010,08,25,10,37,22.50
2010,08,25,10,38,22.50
2010,08,25,10,39,22.60
2010,08,25,10,40,22.60
2010,08,25,10,41,22.60
2010,08,25,10,42,22.70
2010,08,25,10,43,22.80
2010,08,25,10,44,22.80
2010,08,25,10,45,22.90
2010,08,25,10,46,23.00
2010,08,25,10,47,23.20
2010,08,25,10,48,23.30
2010,08,25,10,49,23.40
2010,08,25,10,50,23.50
2010,08,25,10,51,23.50
2010,08,25,10,52,23.60
2010,08,25,10,53,23.60
2010,08,25,10,54,23.60
2010,08,25,10,55,23.60
2010,08,25,10,56,23.60
2010,08,25,10,57,23.60
2010,08,25,10,58,23.60
2010,08,25,10,59,23.60
2010,08,25,11,00,23.60
2010,08,25,11,01,23.60
2010,08,25,11,02,23.60
2010,08,25,11,03,23.70
2010,08,25,11,04,23.80
2010,08,25,11,05,24.00
2010,08,25,11,06,24.00
2010,08,25,11,07,24.10
2010,08,25,11,08,24.20
2010,08,25,11,09,24.20
2010,08,25,11,10,24.20
2010,08,25,11,11,24.30
2010,08,25,11,12,24.30
2010,08,25,11,13,24.30
2010,08,25,11,14,24.30
2010,08,25,11,15,24.30
2010,08,25,11,16,24.30
2010,08,25,11,17,24.30
2010,08,25,11,18,24.40
2010,08,25,11,19,24.40
2010,08,25,11,20,24.50
2010,08,25,11,21,24.60
2010,08,25,11,22,24.80
2010,08,25,11,23,25.00
2010,08,25,11,24,25.10
2010,08,25,11,25,25.30
2010,08,25,11,26,25.30
2010,08,25,11,27,25.40
2010,08,25,11,28,25.50
2010,08,25,11,29,25.50
2010,08,25,11,30,25.60
2010,08,25,11,31,25.60
2010,08,25,11,32,25.70
2010,08,25,11,33,25.70
2010,08,25,11,34,25.70
2010,08,25,11,35,25.70
2010,08,25,11,36,25.70
2010,08,25,11,37,25.60
2010,08,25,11,38,25.60
2010,08,25,11,39,25.70
2010,08,25,11,40,25.70
2010,08,25,11,41,25.70
2010,08,25,11,42,25.70
2010,08,25,11,43,25.70
2010,08,25,11,44,25.70
2010,08,25,11,45,25.70
2010,08,25,11,46,25.70
2010,08,25,11,47,25.70
2010,08,25,11,48,25.70
2010,08,25,11,49,25.70
2010,08,25,11,50,25.70
2010,08,25,11,51,25.80
2010,08,25,11,52,25.80
2010,08,25,11,53,25.80
2010,08,25,11,54,25.90
2010,08,25,11,55,25.90
2010,08,25,11,56,25.90
2010,08,25,11,57,25.90
2010,08,25,11,58,26.00
2010,08,25,11,59,26.10
2010,08,25,12,00,26.10
2010,08,25,12,01,26.20
2010,08,25,12,02,26.10
2010,08,25,12,03,26.10
2010,08,25,12,04,26.20
2010,08,25,12,05,26.30
2010,08,25,12,06,26.30
2010,08,25,12,07,26.30
2010,08,25,12,08,26.40
2010,08,25,12,09,26.50
2010,08,25,12,10,26.60
2010,08,25,12,11,26.70
2010,08,25,12,12,26.80
2010,08,25,12,13,26.80
2010,08,25,12,14,26.80
2010,08,25,12,15,26.90
2010,08,25,12,16,26.90
2010,08,25,12,17,26.90
2010,08,25,12,18,26.90
2010,08,25,12,19,26.90
2010,08,25,12,20,26.90
2010,08,25,12,21,26.90
2010,08,25,12,22,26.90
2010,08,25,12,23,27.00
2010,08,25,12,24,27.00
2010,08,25,12,25,27.10
2010,08,25,12,26,27.20
2010,08,25,12,27,27.20
2010,08,25,12,28,27.20
2010,08,25,12,29,27.20
2010,08,25,12,30,27.20
2010,08,25,12,31,27.20
2010,08,25,12,32,27.20
2010,08,25,12,33,27.20
2010,08,25,12,34,27.20
2010,08,25,12,35,27.30
2010,08,25,12,36,27.30
2010,08,25,12,37,27.30
2010,08,25,12,38,27.40
2010,08,25,12,39,27.60
2010,08,25,12,40,27.70
2010,08,25,12,41,27.80
2010,08,25,12,42,28.00
2010,08,25,12,43,28.10
2010,08,25,12,44,28.20
2010,08,25,12,45,28.20
2010,08,25,12,46,28.10
2010,08,25,12,47,28.00
2010,08,25,12,48,28.00
2010,08,25,12,49,28.00
2010,08,25,12,50,28.00
2010,08,25,12,51,28.10
2010,08,25,12,52,28.20
2010,08,25,12,53,28.20
2010,08,25,12,54,28.20
2010,08,25,12,55,28.20
2010,08,25,12,56,28.20
2010,08,25,12,57,28.20
2010,08,25,12,58,28.20
2010,08,25,12,59,28.30
2010,08,25,13,00,28.30
2010,08,25,13,01,28.30
2010,08,25,13,02,28.40
2010,08,25,13,03,28.50
2010,08,25,13,04,28.60
2010,08,25,13,05,28.70
2010,08,25,13,06,28.80
2010,08,25,13,07,28.90
2010,08,25,13,08,28.90
2010,08,25,13,09,28.90
2010,08,25,13,10,28.90
2010,08,25,13,11,28.90
2010,08,25,13,12,29.00
2010,08,25,13,13,29.10
2010,08,25,13,14,29.20
2010,08,25,13,15,29.30
2010,08,25,13,16,29.30
2010,08,25,13,17,29.40
2010,08,25,13,18,29.50
2010,08,25,13,19,29.70
2010,08,25,13,20,29.80
2010,08,25,13,21,29.90
2010,08,25,13,22,29.90
2010,08,25,13,23,29.90
2010,08,25,13,24,29.80
2010,08,25,13,25,29.70
2010,08,25,13,26,29.70
2010,08,25,13,27,29.70
2010,08,25,13,28,29.70
2010,08,25,13,29,29.80
2010,08,25,13,30,29.80
2010,08,25,13,31,29.80
2010,08,25,13,32,29.80
2010,08,25,13,33,29.70
2010,08,25,13,34,29.70
2010,08,25,13,35,29.80
2010,08,25,13,36,29.80
2010,08,25,13,37,29.80
2010,08,25,13,38,29.80
2010,08,25,13,39,29.80
2010,08,25,13,40,29.80
2010,08,25,13,41,29.80
2010,08,25,13,42,29.80
2010,08,25,13,43,29.70
2010,08,25,13,44,29.60
2010,08,25,13,45,29.60
2010,08,25,13,46,29.60
2010,08,25,13,47,29.70
2010,08,25,13,48,29.80
2010,08,25,13,49,29.80
2010,08,25,13,50,29.80
2010,08,25,13,51,29.80
2010,08,25,13,52,29.80
2010,08,25,13,53,29.80
2010,08,25,13,54,29.90
2010,08,25,13,55,29.90
2010,08,25,13,56,29.90
2010,08,25,13,57,29.90
2010,08,25,13,58,29.80
2010,08,25,13,59,29.90
2010,08,25,14,00,29.90
2010,08,25,14,01,29.90
2010,08,25,14,02,29.90
2010,08,25,14,03,29.90
2010,08,25,14,04,30.00
2010,08,25,14,05,30.00
2010,08,25,14,06,30.10
2010,08,25,14,07,30.20
2010,08,25,14,08,30.20
2010,08,25,14,09,30.20
2010,08,25,14,10,30.10
2010,08,25,14,11,30.10
2010,08,25,14,12,30.00
2010,08,25,14,13,30.00
2010,08,25,14,14,30.00
2010,08,25,14,15,30.00
2010,08,25,14,16,30.00
2010,08,25,14,17,29.90
2010,08,25,14,18,29.80
2010,08,25,14,19,29.80
2010,08,25,14,20,29.90
2010,08,25,14,21,30.00
2010,08,25,14,22,30.10
2010,08,25,14,23,30.10
2010,08,25,14,24,30.20
2010,08,25,14,25,30.30
2010,08,25,14,26,30.30
2010,08,25,14,27,30.20
2010,08,25,14,28,30.20
2010,08,25,14,29,30.10
2010,08,25,14,30,30.20
2010,08,25,14,31,30.20
2010,08,25,14,32,30.20
2010,08,25,14,33,30.30
2010,08,25,14,34,30.40
2010,08,25,14,35,30.50
2010,08,25,14,36,30.50
2010,08,25,14,37,30.60
2010,08,25,14,38,30.70
2010,08,25,14,39,30.70
2010,08,25,14,40,30.80
2010,08,25,14,41,30.80
2010,08,25,14,42,30.80
2010,08,25,14,43,30.80
2010,08,25,14,44,30.80
2010,08,25,14,45,30.80
2010,08,25,14,46,30.80
2010,08,25,14,47,30.80
2010,08,25,14,48,30.80
2010,08,25,14,49,30.80
2010,08,25,14,50,30.70
2010,08,25,14,51,30.70
2010,08,25,14,52,30.70
2010,08,25,14,53,30.70
2010,08,25,14,54,30.70
2010,08,25,14,55,30.70
2010,08,25,14,56,30.70
2010,08,25,14,57,30.70
2010,08,25,14,58,30.60
2010,08,25,14,59,30.50
2010,08,25,15,00,30.40
2010,08,25,15,01,30.40
2010,08,25,15,02,30.30
2010,08,25,15,03,30.30
2010,08,25,15,04,30.30
2010,08,25,15,05,30.20
2010,08,25,15,06,30.20
2010,08,25,15,07,30.20
2010,08,25,15,08,30.00
2010,08,25,15,09,29.90
2010,08,25,15,10,29.90
2010,08,25,15,11,29.90
2010,08,25,15,12,30.00
2010,08,25,15,13,30.10
2010,08,25,15,14,30.30
2010,08,25,15,15,30.30
2010,08,25,15,16,30.40
2010,08,25,15,17,30.40
2010,08,25,15,18,30.40
2010,08,25,15,19,30.30
2010,08,25,15,20,30.20
2010,08,25,15,21,30.10
2010,08,25,15,22,30.00
2010,08,25,15,23,30.00
2010,08,25,15,24,30.00
2010,08,25,15,25,30.10
2010,08,25,15,26,30.10
2010,08,25,15,27,30.10
2010,08,25,15,28,30.10
2010,08,25,15,29,30.20
2010,08,25,15,30,30.30
2010,08,25,15,31,30.40
2010,08,25,15,32,30.50
2010,08,25,15,33,30.60
2010,08,25,15,34,30.60
2010,08,25,15,35,30.70
2010,08,25,15,36,30.80
2010,08,25,15,37,30.80
2010,08,25,15,38,30.90
2010,08,25,15,39,30.90
2010,08,25,15,40,31.00
2010,08,25,15,41,31.10
2010,08,25,15,42,31.10
2010,08,25,15,43,31.00
2010,08,25,15,44,30.90
2010,08,25,15,45,30.70
2010,08,25,15,46,30.70
2010,08,25,15,47,30.60
2010,08,25,15,48,30.60
2010,08,25,15,49,30.60
2010,08,25,15,50,30.50
2010,08,25,15,51,30.40
2010,08,25,15,52,30.40
2010,08,25,15,53,30.40
2010,08,25,15,54,30.40
2010,08,25,15,55,30.40
2010,08,25,15,56,30.40
2010,08,25,15,57,30.50
2010,08,25,15,58,30.60
2010,08,25,15,59,30.60
2010,08,25,16,00,30.60
2010,08,25,16,01,30.50
2010,08,25,16,02,30.50
2010,08,25,16,03,30.50
2010,08,25,16,04,30.50
2010,08,25,16,05,30.50
2010,08,25,16,06,30.60
2010,08,25,16,07,30.60
2010,08,25,16,08,30.60
2010,08,25,16,09,30.60
2010,08,25,16,10,30.60
2010,08,25,16,11,30.50
2010,08,25,16,12,30.50
2010,08,25,16,13,30.50
2010,08,25,16,14,30.40
2010,08,25,16,15,30.40
2010,08,25,16,16,30.40
2010,08,25,16,17,30.30
2010,08,25,16,18,30.30
2010,08,25,16,19,30.20
2010,08,25,16,20,30.10
2010,08,25,16,21,30.00
2010,08,25,16,22,29.90
2010,08,25,16,23,29.90
2010,08,25,16,24,29.90
2010,08,25,16,25,29.90
2010,08,25,16,26,30.00
2010,08,25,16,27,30.10
2010,08,25,16,28,30.10
2010,08,25,16,29,30.10
2010,08,25,16,30,30.10
2010,08,25,16,31,30.10
2010,08,25,16,32,30.10
2010,08,25,16,33,30.10
2010,08,25,16,34,30.00
2010,08,25,16,35,29.90
2010,08,25,16,36,29.90
2010,08,25,16,37,29.90
2010,08,25,16,38,29.80
2010,08,25,16,39,29.80
2010,08,25,16,40,29.80
2010,08,25,16,41,29.80
2010,08,25,16,42,29.80
2010,08,25,16,43,29.80
2010,08,25,16,44,29.70
2010,08,25,16,45,29.60
2010,08,25,16,46,29.70
2010,08,25,16,47,29.80
2010,08,25,16,48,29.80
2010,08,25,16,49,29.90
2010,08,25,16,50,29.90
2010,08,25,16,51,29.90
2010,08,25,16,52,30.00
2010,08,25,16,53,30.00
2010,08,25,16,54,30.10
2010,08,25,16,55,30.20
2010,08,25,16,56,30.20
2010,08,25,16,57,30.20
2010,08,25,16,58,30.30
2010,08,25,16,59,30.30
2010,08,25,17,00,30.30
2010,08,25,17,01,30.20
2010,08,25,17,02,30.20
2010,08,25,17,03,30.30
2010,08,25,17,04,30.30
2010,08,25,17,05,30.30
2010,08,25,17,06,30.30
2010,08,25,17,07,30.30
2010,08,25,17,08,30.30
2010,08,25,17,09,30.30
2010,08,25,17,10,30.30
2010,08,25,17,11,30.30
2010,08,25,17,12,30.20
2010,08,25,17,13,30.30
2010,08,25,17,14,30.20
2010,08,25,17,15,30.20
2010,08,25,17,16,30.20
2010,08,25,17,17,30.10
2010,08,25,17,18,29.90
2010,08,25,17,19,29.80